Regional Weather Roundup
Issued by NWS Columbia, SC

Home | Current Version | Previous Version | Text Only | Print | Product List | Glossary On
Versions: 1 2 3 4 5 6 7 8 9 10 11 12 13 14 15 16 17 18 19 20 21 22 23 24 25 26 27
000
ASUS42 KCAE 211710
RWRCAE
REGIONAL WEATHER ROUNDUP
NATIONAL WEATHER SERVICE COLUMBIA SC
1200 PM EST SAT JAN 21 2017

NOTE: "FAIR" INDICATES FEW OR NO CLOUDS BELOW 12,000 FEET WITH NO
SIGNIFICANT WEATHER AND/OR OBSTRUCTIONS TO VISIBILITY.

NOT ALL STATIONS ARE QUALITY CONTROLLED BY THE NATIONAL
WEATHER SERVICE. USE DATA WITH CAUTION...ESPECIALLY
DEWPOINT OBSERVATIONS.

SCZ001>056-GAZ040-063>065-077-211800-
...UPSTATE SOUTH CAROLINA...

CITY           SKY/WX    TMP DP  RH WIND       PRES   REMARKS
ANDERSON       RAIN      57  56  96 NE6       29.82F FOG
LIBERTY        HVY RAIN  55  55  99 CALM      29.84F
SPARTANBURG    FOG       54  54 100 NE5       29.82F VSB 1/2
CLEMSON        HVY RAIN  57  55  93 NE7       29.83F VSB 1/4
GREENVILLE     HVY RAIN  56  55  97 E6        29.85F VSB 1/2
GREENWOOD      RAIN      56  55  97 CALM      29.84F FOG
GREER          LGT RAIN  55  54  96 NE5       29.85F VSB 1/4
ROCK HILL      CLOUDY    57  55  93 CALM      29.85F FOG
CHESTER        FOG       55  55 100 CALM      29.86F VSB 1/2


...CENTRAL SOUTH CAROLINA...

CITY           SKY/WX    TMP DP  RH WIND       PRES   REMARKS
COLUMBIA APT   LGT RAIN  63  62  97 E3        29.82F VSB 1/2
COLUMBIA OWENS LGT RAIN N/A N/A N/A CALM      29.83F
MCENTIRE ANGB  LGT RAIN  63  63 100 E7        29.82F FOG
ORANGEBURG     CLOUDY    66  65  96 S7        29.83F
SUMTER SHAW    LGT RAIN  62  62  97 CALM      29.82F FOG
NEWBERRY       RAIN      59  59 100 CALM      29.86F
AIKEN          RAIN      63  63 100 SE3       29.85F
BARNWELL       CLOUDY    68  66  94 SE8       29.82F
MANNING        LGT RAIN  63  63 100 SE5       29.84F
CAMDEN         LGT RAIN  59  59 100 CALM      29.86F VSB<1/4
LANCASTER      CLOUDY    59  59 100 SE3       29.86F
WINNSBORO      RAIN      59  59 100 CALM      29.85F VSB 1


...EASTERN AND COASTAL SOUTH CAROLINA...

CITY           SKY/WX    TMP DP  RH WIND       PRES   REMARKS
MYRTLE BEACH   CLOUDY    63  59  88 S12       29.90F FOG
N MYRTLE BCH   FOG       61  61 100 S6        29.87F VSB 1/4
CONWAY         PTSUNNY   66  63  88 S3        29.88F
MARION         CLOUDY    68  61  77 S7        29.87F
HARTSVILLE     CLOUDY    55  55 100 CALM      29.86F
FLORENCE       CLOUDY    68  63  84 S7        29.87F
DARLINGTON     CLOUDY    58  57  97 SE3       29.87F
CHARLESTON APT CLOUDY    67  65  93 S9        29.85F
MOUNT PLEASANT DRIZZLE   66  66 100 CALM      29.87F
WALTERBORO     CLOUDY    64  64 100 SE5       29.86F
BEAUFORT       CLOUDY    68  66  93 S5        29.86F FOG


...EASTERN GEORGIA...

CITY           SKY/WX    TMP DP  RH WIND       PRES   REMARKS
AUGUSTA BUSH F HVY RAIN  66  64  93 SW5       29.83F VSB 3/4
AUGUSTA DANIEL RAIN      65  62  90 S7        29.84R VSB 3/4
THOMSON        CLOUDY    64  64 100 SE9       29.83F
WASHINGTON     CLOUDY    64  64 100 E5        29.77F
CLAXTON        PTSUNNY  N/A N/A N/A SE3       29.83F
SYLVANIA       LGT RAIN N/A N/A N/A S7        29.84F
STATESBORO     CLOUDY    70  32  24 SE5       29.83F
SAVANNAH       CLOUDY    72  66  81 SW5       29.85F


...SOUTHERN NORTH CAROLINA...

CITY           SKY/WX    TMP DP  RH WIND       PRES   REMARKS
CHARLOTTE      CLOUDY    57  54  89 VRB5      29.86F FOG
MONROE         CLOUDY    55  53  93 VRB3      29.85F
WADESBORO      CLOUDY    56  55  95 CALM      29.86F FOG
ROCKINGHAM     CLOUDY    58  58 100 CALM      29.86F FOG
RUTHERFORDTON  CLOUDY    55  55 100 CALM      29.87F FOG
ASHEVILLE      CLOUDY    51  48  89 SE3       29.86F

$$




USA.gov is the U.S. government's official web portal to all federal, state and local government web resources and services.